Regional Weather Roundup
Issued by NWS

Home | Current Version | Previous Version | Graphics & Text | Print | Product List | Glossary Off
Versions: 1 2 3 4 5 6 7 8 9 10 11 12 13 14 15 16 17 18 19 20 21 22 23 24 25 26 27 28 29 30 31 32 33 34 35 36 37 38 39 40 41 42 43 44 45 46 47 48 49 50

179
ASUS43 KFSD 270110
RWRSD

WEATHER ROUNDUP FOR SOUTH DAKOTA
NATIONAL WEATHER SERVICE SIOUX FALLS SD
800 PM CDT TUE JUL 26 2016

NOTE: "FAIR" INDICATES FEW OR NO CLOUDS BELOW 12,000 FEET WITH NO
SIGNIFICANT WEATHER AND/OR OBSTRUCTIONS TO VISIBILITY.


SDZ001>005-009-010-012>017-270200-
NORTHWEST AND NORTH CENTRAL SOUTH DAKOTA

CITY           SKY/WX    TMP DP  RH WIND       PRES   REMARKS
BUFFALO          N/A     81  58  45 NE16      29.98S
FAITH            N/A     83  56  39 NE15      29.99S
MOBRIDGE       MOSUNNY   83  66  56 NE7       29.92S
$$

SDZ012>016-024>037-041>051-057-063-072>074-270200-
SOUTHWEST AND SOUTH CENTRAL SOUTH DAKOTA

CITY           SKY/WX    TMP DP  RH WIND       PRES   REMARKS
RAPID CTY ARPT PTSUNNY   79  56  45 N15       29.98R
PIERRE         CLOUDY    77  67  71 SE12      29.91S
CUSTER         CLOUDY    62  57  83 CALM      30.16S
ELLSWORTH AFB  PTSUNNY   78  58  48 N16       29.98F
PHILIP         CLOUDY    85  59  41 NE13      29.93S
PINE RIDGE     CLOUDY    85  66  53 N24G39    29.90F THUNDER
WINNER         TSTM      71  66  84 NE23G32   29.92F
$$

SDZ004>011-016>023-039-040-270200-
NORTHEAST SOUTH DAKOTA

CITY           SKY/WX    TMP DP  RH WIND       PRES   REMARKS
ABERDEEN       CLOUDY    78  68  71 NE7       29.95R
WATERTOWN      CLOUDY    75  65  70 SE5       29.96S
BROOKINGS      CLOUDY    76  71  85 E6        29.95F
SISSETON         N/A     73  70  90 CALM      29.97R
$$

SDZ017-020-022-023-036>040-048>070-270200-
SOUTHEAST SOUTH DAKOTA

CITY           SKY/WX    TMP DP  RH WIND       PRES   REMARKS
SIOUX FALLS    CLOUDY    82  66  58 S13       29.97S
HURON          MOCLDY    79  66  64 SE12      29.89F
CHAMBERLAIN    DRIZZLE   74  72  93 W9        29.97R
MITCHELL       CLOUDY    84  62  47 S12       29.93F
YANKTON        CLEAR     82  64  54 SE13      29.95R
$$

ABBREVIATIONS USED IN REMARKS
   TC - TEMPERATURE IN CELSIUS
  WCI - WIND CHILL INDEX
   HX - HEAT INDEX
  VSB - VISIBILITY





USA.gov is the U.S. government's official web portal to all federal, state and local government web resources and services.